TimeCST,TemperatureF,Dew PointF,Humidity,Sea Level PressureIn,VisibilityMPH,Wind Direction,Wind SpeedMPH,Gust SpeedMPH,PrecipitationIn,Events,Conditions,WindDirDegrees,DateUTC
12:55 AM,55.4,51.8,88,29.61,10.0,WNW,9.2,-,0.01,,Overcast,300,2013-01-30 06:55:00
1:15 AM,55.4,51.8,88,29.62,10.0,WNW,5.8,-,0.01,,Overcast,290,2013-01-30 07:15:00
1:35 AM,55.4,51.8,88,29.62,10.0,Calm,Calm,-,0.01,,Overcast,0,2013-01-30 07:35:00
1:55 AM,55.4,51.8,88,29.61,10.0,Calm,Calm,-,0.02,,Overcast,0,2013-01-30 07:55:00
2:55 AM,55.4,51.8,88,29.61,10.0,South,8.1,-,N/A,,Overcast,190,2013-01-30 08:55:00
3:15 AM,55.4,51.8,88,29.62,10.0,South,12.7,-,N/A,,Overcast,180,2013-01-30 09:15:00
3:35 AM,55.4,51.8,88,29.61,10.0,South,10.4,-,N/A,,Overcast,180,2013-01-30 09:35:00
3:55 AM,55.4,50.0,82,29.60,10.0,South,9.2,-,N/A,,Overcast,190,2013-01-30 09:55:00
4:15 AM,55.4,50.0,82,29.60,10.0,SSW,9.2,-,N/A,,Overcast,200,2013-01-30 10:15:00
4:36 AM,53.6,50.0,88,29.59,10.0,South,11.5,-,N/A,,Overcast,190,2013-01-30 10:36:00
4:55 AM,53.6,50.0,88,29.59,10.0,SSW,13.8,-,N/A,,Overcast,200,2013-01-30 10:55:00
5:15 AM,53.6,50.0,88,29.60,10.0,South,16.1,19.6,N/A,,Overcast,190,2013-01-30 11:15:00
5:55 AM,53.6,48.2,82,29.58,10.0,SSW,17.3,-,N/A,,Overcast,210,2013-01-30 11:55:00
6:15 AM,53.6,46.4,77,29.59,10.0,SW,18.4,24.2,N/A,,Overcast,230,2013-01-30 12:15:00
6:55 AM,53.6,44.6,72,29.59,10.0,SW,16.1,21.9,N/A,,Mostly Cloudy,220,2013-01-30 12:55:00
7:15 AM,53.6,44.6,72,29.61,10.0,SW,18.4,-,N/A,,Overcast,230,2013-01-30 13:15:00
7:35 AM,51.8,42.8,71,29.63,10.0,WSW,18.4,23.0,N/A,,Mostly Cloudy,240,2013-01-30 13:35:00
7:55 AM,51.8,42.8,71,29.64,10.0,WSW,18.4,27.6,N/A,,Mostly Cloudy,240,2013-01-30 13:55:00
8:15 AM,51.8,42.8,71,29.64,10.0,WSW,21.9,27.6,N/A,,Overcast,240,2013-01-30 14:15:00
8:35 AM,51.8,42.8,71,29.64,10.0,WSW,19.6,25.3,N/A,,Mostly Cloudy,250,2013-01-30 14:35:00
8:56 AM,51.8,42.8,71,29.64,10.0,WSW,18.4,-,N/A,,Mostly Cloudy,250,2013-01-30 14:56:00
9:15 AM,51.8,42.8,71,29.64,10.0,West,19.6,25.3,N/A,,Mostly Cloudy,260,2013-01-30 15:15:00
9:35 AM,51.8,41.0,67,29.64,10.0,West,18.4,32.2,N/A,,Overcast,280,2013-01-30 15:35:00
9:55 AM,51.8,39.2,62,29.65,10.0,West,21.9,28.8,N/A,,Mostly Cloudy,280,2013-01-30 15:55:00
10:15 AM,48.2,39.2,71,29.69,10.0,West,18.4,27.6,N/A,,Overcast,280,2013-01-30 16:15:00
10:55 AM,48.2,37.4,66,29.68,10.0,WNW,24.2,29.9,N/A,,Mostly Cloudy,300,2013-01-30 16:55:00
11:15 AM,46.4,35.6,66,29.71,10.0,West,23.0,31.1,N/A,,Overcast,280,2013-01-30 17:15:00
11:36 AM,46.4,35.6,66,29.72,10.0,West,20.7,-,N/A,,Overcast,280,2013-01-30 17:36:00
11:55 AM,44.6,33.8,66,29.74,10.0,West,27.6,31.1,N/A,,Overcast,270,2013-01-30 17:55:00
12:15 PM,44.6,30.2,57,29.74,10.0,West,27.6,38.0,N/A,,Overcast,270,2013-01-30 18:15:00
12:55 PM,46.4,30.2,53,29.74,10.0,West,29.9,34.5,N/A,,Overcast,270,2013-01-30 18:55:00
1:35 PM,44.6,30.2,57,29.78,10.0,West,28.8,35.7,N/A,,Overcast,270,2013-01-30 19:35:00
1:56 PM,44.6,30.2,57,29.79,10.0,West,25.3,33.4,N/A,,Overcast,280,2013-01-30 19:56:00
2:15 PM,44.6,30.2,57,29.79,10.0,West,25.3,34.5,N/A,,Overcast,270,2013-01-30 20:15:00
2:35 PM,44.6,28.4,53,29.80,10.0,West,25.3,38.0,N/A,,Overcast,280,2013-01-30 20:35:00
2:56 PM,44.6,28.4,53,29.82,10.0,WNW,26.5,33.4,N/A,,Overcast,290,2013-01-30 20:56:00
3:15 PM,44.6,28.4,53,29.84,10.0,West,28.8,36.8,N/A,,Overcast,280,2013-01-30 21:15:00
3:35 PM,44.6,28.4,53,29.84,10.0,WNW,25.3,36.8,N/A,,Overcast,290,2013-01-30 21:35:00
4:15 PM,44.6,28.4,53,29.87,10.0,WNW,24.2,34.5,N/A,,Overcast,290,2013-01-30 22:15:00
4:35 PM,44.6,28.4,53,29.89,10.0,West,21.9,28.8,N/A,,Mostly Cloudy,280,2013-01-30 22:35:00
5:15 PM,42.8,26.6,53,29.92,10.0,West,21.9,31.1,N/A,,Mostly Cloudy,280,2013-01-30 23:15:00
5:35 PM,42.8,26.6,53,29.93,10.0,WNW,16.1,26.5,N/A,,Mostly Cloudy,290,2013-01-30 23:35:00
6:15 PM,41.0,24.8,53,29.97,10.0,West,24.2,31.1,N/A,,Partly Cloudy,280,2013-01-31 00:15:00
6:35 PM,39.2,24.8,56,29.98,10.0,WNW,21.9,27.6,N/A,,Clear,290,2013-01-31 00:35:00
6:55 PM,39.2,26.6,61,29.99,10.0,WNW,17.3,23.0,N/A,,Clear,290,2013-01-31 00:55:00
7:15 PM,39.2,26.6,61,30.00,10.0,WNW,12.7,-,N/A,,Clear,290,2013-01-31 01:15:00
7:35 PM,39.2,26.6,61,30.01,10.0,WNW,15.0,-,N/A,,Clear,290,2013-01-31 01:35:00
7:55 PM,39.2,26.6,61,30.03,10.0,WNW,13.8,-,N/A,,Clear,290,2013-01-31 01:55:00
8:35 PM,37.4,26.6,65,30.05,10.0,West,13.8,-,N/A,,Clear,280,2013-01-31 02:35:00
8:55 PM,37.4,26.6,65,30.06,10.0,West,11.5,-,N/A,,Clear,280,2013-01-31 02:55:00
9:35 PM,37.4,26.6,65,30.07,10.0,WNW,9.2,-,N/A,,Clear,290,2013-01-31 03:35:00
9:55 PM,37.4,26.6,65,30.08,10.0,West,11.5,-,N/A,,Clear,280,2013-01-31 03:55:00
10:15 PM,37.4,26.6,65,30.07,10.0,West,13.8,-,N/A,,Clear,280,2013-01-31 04:15:00
10:36 PM,37.4,26.6,65,30.08,10.0,West,13.8,-,N/A,,Clear,280,2013-01-31 04:36:00
10:55 PM,37.4,26.6,65,30.09,10.0,West,15.0,-,N/A,,Clear,280,2013-01-31 04:55:00
11:15 PM,37.4,26.6,65,30.09,10.0,West,12.7,18.4,N/A,,Clear,280,2013-01-31 05:15:00
11:35 PM,35.6,26.6,70,30.09,10.0,WNW,11.5,-,N/A,,Clear,290,2013-01-31 05:35:00
11:55 PM,35.6,26.6,70,30.09,10.0,WNW,10.4,-,N/A,,Clear,290,2013-01-31 05:55:00